Brainerd, MN

6:59 AM CST on December 03, 2016 (GMT -0600)
Brainerd-Crow Wing County Regional

Weather History for KBRD - November, 2012

Change the Weather History Date:

Friday, November 30, 2012

  Actual Average Record
Temperature  
Mean Temperature 28 °F -  
Max Temperature 30 °F 30 °F 50 °F (1973)
Min Temperature 26 °F 9 °F -24 °F (1964)
Degree Days  
Heating Degree Days 37    
Moisture  
Dew Point 24 °F    
Average Humidity 80    
Maximum Humidity 89    
Minimum Humidity 75    
Precipitation  
Precipitation 0.00 in - - ()
Sea Level Pressure  
Sea Level Pressure 30.16 in    
Wind  
Wind Speed 7 mph (ESE)    
Max Wind Speed 9 mph    
Max Gust Speed -    
Visibility 8 miles    
Events      
Averages and records for this station are not official NWS values.
T = Trace of Precipitation, MM = Missing Value Source: NWS Daily Summary

Daily Weather History Graph

Daily Weather History Graph

Search for Another Location

Airport or City:

Trip Planner

Search our weather history database for the weather conditions in past years. The results will help you decide how hot, cold, wet, or windy it might be!

Date:

Astronomy

Nov. 30, 2012 Rise Set
Actual Time 7:38 AM CST 4:31 PM CST
Civil Twilight 7:04 AM CST 5:05 PM CST
Nautical Twilight 6:27 AM CST 5:43 PM CST
Astronomical Twilight 5:50 AM CST 6:19 PM CST
Moon 6:28 PM CST (11/30) 9:10 AM CST (11/30)
Length of Visible Light 10h 01m
Length of Day
8h 52m
Waning Gibbous, 96% of the Moon is Illuminated
Nov 30
Waning Gibbous
Dec 6
Last Quarter
Dec 13
New
Dec 19
First Quarter
Dec 28
Full

Hourly Weather History & Observations

Time (CST) Temp. Windchill Dew Point Humidity Pressure Visibility Wind Dir Wind Speed Gust Speed Precip Events Conditions
12:53 AM 27.0 °F 19.5 °F 19.9 °F 75% 30.20 in 10.0 mi East 6.9 mph - N/A   Overcast
1:53 AM 27.0 °F 18.7 °F 19.9 °F 75% 30.20 in 10.0 mi ENE 8.1 mph - N/A   Overcast
2:53 AM 27.0 °F 19.5 °F 19.9 °F 75% 30.21 in 10.0 mi East 6.9 mph - N/A   Overcast
3:53 AM 27.0 °F 19.5 °F 19.9 °F 75% 30.22 in 10.0 mi East 6.9 mph - N/A   Overcast
4:53 AM 26.1 °F 19.4 °F 19.9 °F 78% 30.20 in 10.0 mi East 5.8 mph - N/A   Overcast
5:53 AM 26.1 °F 20.5 °F 21.0 °F 81% 30.22 in 9.0 mi ENE 4.6 mph - N/A   Overcast
6:53 AM 26.1 °F 20.5 °F 19.9 °F 78% 30.23 in 10.0 mi East 4.6 mph - N/A   Overcast
7:53 AM 27.0 °F 21.6 °F 21.0 °F 78% 30.22 in 9.0 mi ESE 4.6 mph - N/A   Overcast
8:53 AM 28.0 °F 21.7 °F 21.9 °F 78% 30.21 in 9.0 mi Variable 5.8 mph - N/A   Overcast
9:53 AM 28.9 °F 21.9 °F 21.9 °F 75% 30.22 in 9.0 mi East 6.9 mph - N/A   Overcast
10:53 AM 28.9 °F 21.9 °F 23.0 °F 78% 30.25 in 9.0 mi SE 6.9 mph - N/A   Overcast
11:53 AM 30.0 °F 22.4 °F 24.1 °F 79% 30.20 in 8.0 mi SE 8.1 mph - N/A   Overcast
12:53 PM 30.0 °F 23.2 °F 24.1 °F 79% 30.18 in 8.0 mi SSE 6.9 mph - N/A   Overcast
1:53 PM 30.9 °F 22.8 °F 25.0 °F 79% 30.17 in 7.0 mi South 9.2 mph - N/A   Overcast
2:53 PM 30.9 °F 27.5 °F 25.0 °F 79% 30.18 in 6.0 mi SSE 3.5 mph - N/A   Haze
3:53 PM 30.9 °F 24.3 °F 25.0 °F 79% 30.14 in 6.0 mi ESE 6.9 mph - N/A   Haze
4:53 PM 30.9 °F 26.2 °F 25.0 °F 79% 30.14 in 7.0 mi SE 4.6 mph - N/A   Overcast
5:46 PM 30.2 °F 24.3 °F 24.8 °F 80% 30.08 in 6.0 mi SE 5.8 mph - N/A   Haze
5:53 PM 30.9 °F 25.2 °F 25.0 °F 79% 30.13 in 6.0 mi SE 5.8 mph - N/A   Haze
6:53 PM 30.9 °F 23.5 °F 26.1 °F 82% 30.10 in 6.0 mi SE 8.1 mph - N/A   Haze
7:53 PM 30.9 °F 23.5 °F 27.0 °F 85% 30.09 in 5.0 mi SSE 8.1 mph - N/A   Overcast
8:53 PM 30.9 °F 24.3 °F 27.0 °F 85% 30.08 in 5.0 mi SSE 6.9 mph - N/A   Overcast
9:53 PM 30.9 °F 24.3 °F 27.0 °F 85% 30.06 in 5.0 mi SSE 6.9 mph - N/A   Overcast
10:53 PM 30.9 °F 22.8 °F 27.0 °F 85% 30.06 in 5.0 mi SSE 9.2 mph - N/A   Overcast
11:53 PM 30.9 °F 22.8 °F 28.0 °F 89% 30.03 in 3.0 mi SSE 9.2 mph - N/A   Overcast